When you browse on this site, cookies collect data to enhance your experience and personalize the content and advertising you see.
Visit our Privacy Policy to learn more. By continuing to use the site, you agree to this use of cookies and data.
  • In Spain
  • List of Countries
  • For 7 days
  • Water Temperature
  • Satellite Maps
  • Weather Map
  • Weather Widgets
  • user-avatar
    Login

    Hourly Weather Kaolak

    Today, 19 December, Wednesday

    Time Temperature Precipitation Wind Pressure Humidity
    00:00 +20°C° 0 mm 7 mps 736 mmHg 20%
    01:00 +18°C° 0 mm 7 mps 737 mmHg 23%
    02:00 +17°C° 0 mm 7 mps 736 mmHg 25%
    03:00 +17°C° 0 mm 7 mps 736 mmHg 26%
    04:00 +16°C° 0 mm 7 mps 736 mmHg 27%
    05:00 +16°C° 0 mm 7 mps 736 mmHg 27%
    06:00 +16°C° 0 mm 7 mps 737 mmHg 28%
    07:00 +16°C° 0 mm 7 mps 737 mmHg 28%
    08:00 +18°C° 0 mm 8 mps 737 mmHg 24%
    09:00 +22°C° 0 mm 8 mps 737 mmHg 20%
    10:00 +24°C° 0 mm 9 mps 738 mmHg 16%
    11:00 +27°C° 0 mm 9 mps 737 mmHg 14%
    12:00 +28°C° 0 mm 8 mps 737 mmHg 12%
    13:00 +31°C° 0 mm 8 mps 736 mmHg 10%
    14:00 +31°C° 0 mm 8 mps 736 mmHg 10%
    15:00 +31°C° 0 mm 8 mps 736 mmHg 10%
    16:00 +31°C° 0 mm 8 mps 735 mmHg 10%
    17:00 +28°C° 0 mm 7 mps 735 mmHg 11%
    18:00 +26°C° 0 mm 6 mps 736 mmHg 13%
    19:00 +23°C° 0 mm 5 mps 736 mmHg 15%
    20:00 +22°C° 0 mm 6 mps 736 mmHg 16%
    21:00 +22°C° 0 mm 6 mps 736 mmHg 18%
    22:00 +21°C° 0 mm 6 mps 737 mmHg 19%
    23:00 +20°C° 0 mm 6 mps 737 mmHg 21%

    Tomorrow, 20 December, Thursday

    Time Temperature Precipitation Wind Pressure Humidity
    00:00 +20°C° 0 mm 6 mps 737 mmHg 23%
    01:00 +19°C° 0 mm 6 mps 736 mmHg 25%
    02:00 +17°C° 0 mm 6 mps 736 mmHg 27%
    03:00 +17°C° 0 mm 7 mps 736 mmHg 29%
    04:00 +16°C° 0 mm 7 mps 736 mmHg 31%
    05:00 +16°C° 0 mm 7 mps 736 mmHg 31%
    06:00 +16°C° 0 mm 7 mps 737 mmHg 32%
    07:00 +15°C° 0 mm 7 mps 737 mmHg 32%
    08:00 +18°C° 0 mm 8 mps 737 mmHg 27%
    09:00 +21°C° 0 mm 9 mps 738 mmHg 22%
    10:00 +24°C° 0 mm 10 mps 738 mmHg 18%
    11:00 +26°C° 0 mm 10 mps 737 mmHg 16%
    12:00 +27°C° 0 mm 9 mps 737 mmHg 14%
    13:00 +29°C° 0 mm 9 mps 736 mmHg 13%
    14:00 +29°C° 0 mm 9 mps 736 mmHg 13%
    15:00 +29°C° 0 mm 8 mps 736 mmHg 13%
    16:00 +29°C° 0 mm 8 mps 735 mmHg 14%
    17:00 +27°C° 0 mm 7 mps 735 mmHg 16%
    18:00 +24°C° 0 mm 6 mps 736 mmHg 18%
    19:00 +22°C° 0 mm 6 mps 736 mmHg 20%
    20:00 +22°C° 0 mm 6 mps 736 mmHg 21%
    21:00 +21°C° 0 mm 6 mps 737 mmHg 23%
    22:00 +20°C° 0 mm 6 mps 737 mmHg 25%
    23:00 +19°C° 0 mm 6 mps 737 mmHg 27%

    Day after tomorrow, 21 December, Friday

    Time Temperature Precipitation Wind Pressure Humidity
    00:00 +19°C° 0 mm 6 mps 737 mmHg 29%
    01:00 +17°C° 0 mm 6 mps 736 mmHg 31%
    02:00 +17°C° 0 mm 6 mps 736 mmHg 32%
    03:00 +16°C° 0 mm 6 mps 736 mmHg 34%
    04:00 +16°C° 0 mm 7 mps 736 mmHg 35%
    05:00 +16°C° 0 mm 6 mps 736 mmHg 36%
    06:00 +15°C° 0 mm 6 mps 736 mmHg 36%
    07:00 +15°C° 0 mm 6 mps 737 mmHg 36%
    08:00 +18°C° 0 mm 7 mps 737 mmHg 31%
    09:00 +21°C° 0 mm 8 mps 738 mmHg 26%
    10:00 +23°C° 0 mm 9 mps 738 mmHg 21%
    11:00 +26°C° 0 mm 9 mps 737 mmHg 19%
    12:00 +27°C° 0 mm 9 mps 737 mmHg 17%
    13:00 +28°C° 0 mm 8 mps 736 mmHg 15%
    14:00 +28°C° 0 mm 8 mps 735 mmHg 14%
    15:00 +28°C° 0 mm 8 mps 735 mmHg 14%
    16:00 +28°C° 0 mm 8 mps 734 mmHg 14%
    17:00 +27°C° 0 mm 7 mps 735 mmHg 15%
    18:00 +24°C° 0 mm 6 mps 735 mmHg 17%
    19:00 +22°C° 0 mm 5 mps 736 mmHg 19%
    20:00 +21°C° 0 mm 5 mps 736 mmHg 20%
    21:00 +20°C° 0 mm 6 mps 736 mmHg 20%
    22:00 +20°C° 0 mm 6 mps 736 mmHg 21%
    23:00 +19°C° 0 mm 6 mps 736 mmHg 21%

    22 December, Saturday

    Time Temperature Precipitation Wind Pressure Humidity
    00:00 +17°C° 0 mm 6 mps 736 mmHg 21%
    01:00 +17°C° 0 mm 6 mps 735 mmHg 22%
    02:00 +16°C° 0 mm 6 mps 735 mmHg 22%
    03:00 +16°C° 0 mm 6 mps 735 mmHg 23%
    04:00 +15°C° 0 mm 6 mps 735 mmHg 23%
    05:00 +15°C° 0 mm 6 mps 735 mmHg 24%
    06:00 +15°C° 0 mm 6 mps 735 mmHg 25%
    07:00 +15°C° 0 mm 6 mps 736 mmHg 26%
    08:00 +17°C° 0 mm 7 mps 736 mmHg 23%
    09:00 +20°C° 0 mm 8 mps 737 mmHg 20%
    10:00 +22°C° 0 mm 8 mps 737 mmHg 17%
    11:00 +24°C° 0 mm 8 mps 736 mmHg 15%
    12:00 +27°C° 0 mm 8 mps 736 mmHg 13%
    13:00 +28°C° 0 mm 7 mps 735 mmHg 12%
    14:00 +28°C° 0 mm 7 mps 734 mmHg 12%
    15:00 +28°C° 0 mm 7 mps 734 mmHg 12%
    16:00 +28°C° 0 mm 7 mps 734 mmHg 12%
    17:00 +26°C° 0 mm 6 mps 734 mmHg 13%
    18:00 +24°C° 0 mm 6 mps 734 mmHg 15%
    19:00 +22°C° 0 mm 5 mps 735 mmHg 17%
    20:00 +21°C° 0 mm 5 mps 735 mmHg 17%
    21:00 +20°C° 0 mm 6 mps 735 mmHg 18%
    22:00 +20°C° 0 mm 6 mps 736 mmHg 19%
    23:00 +19°C° 0 mm 6 mps 735 mmHg 20%

    23 December, Sunday

    Time Temperature Precipitation Wind Pressure Humidity
    00:00 +17°C° 0 mm 6 mps 735 mmHg 20%
    01:00 +17°C° 0 mm 6 mps 735 mmHg 21%
    02:00 +16°C° 0 mm 6 mps 735 mmHg 23%
    03:00 +16°C° 0 mm 6 mps 734 mmHg 25%
    04:00 +15°C° 0 mm 6 mps 734 mmHg 27%
    05:00 +15°C° 0 mm 6 mps 735 mmHg 28%
    06:00 +15°C° 0 mm 6 mps 735 mmHg 28%
    07:00 +15°C° 0 mm 6 mps 736 mmHg 29%
    08:00 +17°C° 0 mm 7 mps 736 mmHg 25%
    09:00 +20°C° 0 mm 8 mps 736 mmHg 21%
    10:00 +22°C° 0 mm 9 mps 737 mmHg 18%
    11:00 +24°C° 0 mm 8 mps 736 mmHg 16%
    12:00 +27°C° 0 mm 8 mps 735 mmHg 14%
    13:00 +28°C° 0 mm 8 mps 735 mmHg 12%
    14:00 +28°C° 0 mm 8 mps 734 mmHg 12%
    15:00 +28°C° 0 mm 7 mps 734 mmHg 12%
    16:00 +28°C° 0 mm 7 mps 734 mmHg 12%
    17:00 +26°C° 0 mm 7 mps 734 mmHg 14%
    18:00 +24°C° 0 mm 6 mps 734 mmHg 16%
    19:00 +22°C° 0 mm 5 mps 735 mmHg 17%
    20:00 +21°C° 0 mm 5 mps 735 mmHg 18%
    21:00 +21°C° 0 mm 6 mps 735 mmHg 19%
    22:00 +20°C° 0 mm 6 mps 736 mmHg 20%
    23:00 +19°C° 0 mm 6 mps 736 mmHg 21%

    24 December, Monday

    Time Temperature Precipitation Wind Pressure Humidity
    00:00 +19°C° 0 mm 6 mps 735 mmHg 22%
    01:00 +17°C° 0 mm 6 mps 735 mmHg 24%
    02:00 +17°C° 0 mm 6 mps 735 mmHg 25%
    03:00 +16°C° 0 mm 6 mps 735 mmHg 27%
    04:00 +15°C° 0 mm 6 mps 734 mmHg 29%
    05:00 +15°C° 0 mm 6 mps 735 mmHg 30%
    06:00 +15°C° 0 mm 6 mps 735 mmHg 30%
    07:00 +15°C° 0 mm 6 mps 735 mmHg 31%
    08:00 +17°C° 0 mm 7 mps 736 mmHg 27%
    09:00 +20°C° 0 mm 8 mps 736 mmHg 23%
    10:00 +23°C° 0 mm 9 mps 737 mmHg 19%
    11:00 +24°C° 0 mm 8 mps 736 mmHg 17%
    12:00 +27°C° 0 mm 8 mps 735 mmHg 15%
    13:00 +29°C° 0 mm 8 mps 734 mmHg 13%
    14:00 +28°C° 0 mm 7 mps 734 mmHg 14%
    15:00 +28°C° 0 mm 7 mps 734 mmHg 14%
    16:00 +28°C° 0 mm 7 mps 733 mmHg 14%
    17:00 +26°C° 0 mm 6 mps 734 mmHg 16%
    18:00 +24°C° 0 mm 6 mps 734 mmHg 18%
    19:00 +22°C° 0 mm 5 mps 735 mmHg 20%
    20:00 +21°C° 0 mm 5 mps 735 mmHg 22%
    21:00 +20°C° 0 mm 5 mps 735 mmHg 23%
    22:00 +20°C° 0 mm 5 mps 735 mmHg 24%
    23:00 +19°C° 0 mm 5 mps 735 mmHg 25%
    Show more